EW1433 Weather Reports


time (UTC)temp
C
wind
direction
speed
KPH
gust
KPH
rain 1hr
cm
rain 24hr
cm
rain mn
cm
humidity
%
barometer
mb
20260507052611 15 24 0.0 0.0 0.00 0.00 0.00 78 1019.2
20260507052112 15 24 0.0 0.0 0.00 0.00 0.00 77 1019.2
20260507051610 15 24 0.0 0.0 0.00 0.00 0.00 78 1019.2
20260507051110 15 24 0.0 0.0 0.00 0.00 0.00 78 1019.3
20260507050611 15 24 0.0 0.0 0.00 0.00 0.00 77 1019.2
20260507050113 15 24 0.0 0.0 0.00 0.00 0.00 78 1019.3
20260507045611 15 24 0.0 0.0 0.00 0.00 0.00 77 1019.3
20260507045111 15 24 0.0 0.0 0.00 0.00 0.00 78 1019.3
20260507044609 -17 24 0.0 0.0 0.00 0.00 0.00 1019.4
20260507044111 -17 24 0.0 0.0 0.00 0.00 0.00 1019.4
20260507043610 15 24 0.0 0.0 0.00 0.00 0.00 77 1019.3
20260507043112 15 24 0.0 0.0 0.00 0.00 0.00 77 1019.2
20260507042611 15 24 0.0 0.0 0.00 0.00 0.00 77 1019.2
20260507042111 15 327 0.0 0.0 0.00 0.00 0.00 77 1019.0
20260507041611 15 44 0.0 0.0 0.00 0.00 0.00 76 1019.0
20260507041216 16 0 0.0 0.0 0.00 0.00 0.00 75 1018.9
20260507041153 16 44 0.0 0.0 0.00 0.00 0.00 76 1019.0
20260507040111 16 0 0.0 0.0 0.00 0.00 0.00 75 1018.9
20260507035611 16 38 0.0 0.0 0.00 0.00 0.00 75 1018.8
20260507035110 16 38 0.0 0.0 0.00 0.00 0.00 73 1018.8
20260507034611 16 55 0.0 0.0 0.00 0.00 0.00 73 1018.6
20260507034400 17 34 0.0 0.0 0.00 0.00 0.00 72 1018.5
20260507033611 -17 34 0.0 0.0 0.00 0.00 0.00 1018.4
20260507033110 17 34 0.0 0.0 0.00 0.00 0.00 69 1018.5
20260507032611 17 0 0.0 0.0 0.00 0.00 0.00 69 1018.4
20260507032358 17 0 0.0 0.0 0.00 0.00 0.00 69 1018.3
20260507031611 18 0 0.0 0.0 0.00 0.00 0.00 68 1018.2
20260507031103 18 0 0.0 0.0 0.00 0.00 0.00 68 1018.1
20260507030604 18 0 0.0 0.0 0.00 0.00 0.00 67 1018.0
20260507030106 18 0.0 0.0 0.00 0.00 0.00 67 1017.9
20260507025839 18 35 0.0 0.0 0.00 0.00 0.00 65 1017.9
20260507025057 18 35 0.0 0.0 0.00 0.00 0.00 65 1017.9
20260507024710 20 307 0.0 0.0 0.00 0.00 0.00 62 1017.7
20260507024649 19 35 0.0 0.0 0.00 0.00 0.00 65 1017.8
20260507024403 20 39 0.0 0.0 0.00 0.00 0.00 62 1017.7
20260507023056 20 0.0 0.0 0.00 0.00 0.00 62 1017.7
20260507022559 20 0.0 0.0 0.00 0.00 0.00 60 1017.6
20260507022338 20 0.0 0.0 0.00 0.00 0.00 59 1017.6
20260507021845 21 0.0 0.0 0.00 0.00 0.00 58 1017.5
20260507021057 21 0.0 0.0 0.00 0.00 0.00 58 1017.5
20260507020547 21 255 0.0 0.0 0.00 0.00 0.00 57 1017.5
20260507020328 21 255 0.0 0.0 0.00 0.00 0.00 57 1017.4
20260507015538 21 38 0.0 0.0 0.00 0.00 0.00 55 1017.4
20260507015032 21 0 0.0 0.0 0.00 0.00 0.00 55 1017.4
20260507014635 22 302 0.0 0.0 0.00 0.00 0.00 54 1017.4
20260507014613 22 329 0.0 0.0 0.00 0.00 0.00 54 1017.4
20260507013819 22 0 0.0 0.0 0.00 0.00 0.00 54 1017.4
20260507013029 22 52 0.0 0.0 0.00 0.00 0.00 53 1017.3
20260507012531 22 331 0.0 0.0 0.00 0.00 0.00 53 1017.3
20260507012004 23 32 0.0 0.0 0.00 0.00 0.00 52 1017.2
20260507011503 23 0 0.0 0.0 0.00 0.00 0.00 51 1017.1
20260507011224 23 0 0.0 0.0 0.00 0.00 0.00 50 1017.3
20260507010502 23 293 0.0 0.0 0.00 0.00 0.00 51 1017.2
20260507010003 23 34 0.0 0.0 0.00 0.00 0.00 51 1017.3
20260507005600 23 279 0.0 0.0 0.00 0.00 0.00 51 1017.3
20260507005539 23 295 0.0 0.0 0.00 0.00 0.00 50 1017.2
20260507004502 23 326 0.0 0.0 0.00 0.00 0.00 51 1017.2
20260507004249 24 343 0.0 0.0 0.00 0.00 0.00 49 1017.1
20260507003503 -17 347 0.0 0.0 0.00 0.00 0.00 1017.1
20260507003002 25 0 0.0 0.0 0.00 0.00 0.00 47 1017.0
20260507002503 25 0 0.0 0.0 0.00 0.00 0.00 47 1017.0
20260507002234 25 340 0.0 0.0 0.00 0.00 0.00 47 1017.1
20260507001502 25 321 0.0 0.0 0.00 0.00 0.00 49 1017.0
20260507001001 25 20 0.0 0.0 0.00 0.00 0.00 48 1017.1
20260507000502 25 39 0.0 0.0 0.00 0.00 0.00 48 1017.0
20260507000002 25 0 0.0 0.0 0.00 0.00 0.00 47 1017.0
20260506235502 25 35 0.0 0.0 0.00 0.00 0.00 48 1017.1
20260506235003 25 348 0.0 0.0 0.00 0.00 0.00 48 1017.0
20260506234502 24 0.0 0.0 0.00 0.00 0.00 46 1017.0
20260506234005 25 24 0.0 0.0 0.00 0.00 0.00 46 1017.1
20260506233456 25 24 0.0 1.6 0.00 0.00 0.00 47 1017.1
20260506232956 25 51 0.0 1.6 0.00 0.00 0.00 47 1017.1
20260506232455 25 292 0.0 0.0 0.00 0.00 0.00 47 1017.1
20260506232243 25 302 0.0 0.0 0.00 0.00 0.00 47 1017.1
20260506231454 25 28 0.0 0.0 0.00 0.00 0.00 47 1017.2
20260506230955 25 305 0.0 0.0 0.00 0.00 0.00 46 1017.2
20260506230456 25 255 0.0 0.0 0.00 0.00 0.00 46 1017.3
20260506225955 25 337 0.0 0.0 0.00 0.00 0.00 46 1017.3
20260506225455 26 337 0.0 0.0 0.00 0.00 0.00 46 1017.4
20260506224955 -17 1 0.0 0.0 0.00 0.00 0.00 1017.3
20260506224747 26 310 0.0 0.0 0.00 0.00 0.00 46 1017.4
20260506223956 26 344 0.0 0.0 0.00 0.00 0.00 46 1017.4
20260506223454 25 49 0.0 1.6 0.00 0.00 0.00 44 1017.4
20260506222956 25 354 0.0 1.6 0.00 0.00 0.00 46 1017.4
20260506222457 25 331 0.0 0.0 0.00 0.00 0.00 45 1017.5
20260506221954 25 310 0.0 0.0 0.00 0.00 0.00 47 1017.5
20260506221736 24 353 0.0 0.0 0.00 0.00 0.00 46 1017.7
20260506220954 25 293 0.0 0.0 0.00 0.00 0.00 46 1017.7
20260506220455 23 293 0.0 0.0 0.00 0.00 0.00 46 1017.8
20260506215958 24 189 0.0 0.0 0.00 0.00 0.00 46 1017.8
20260506215454 25 296 0.0 0.0 0.00 0.00 0.00 46 1018.0
20260506214955 25 309 0.0 0.0 0.00 0.00 0.00 49 1018.0
20260506214753 24 341 0.0 0.0 0.00 0.00 0.00 49 1018.1
20260506213954 23 300 0.0 0.0 0.00 0.00 0.00 48 1018.2
20260506213455 24 310 0.0 0.0 0.00 0.00 0.00 49 1018.2
20260506212956 23 329 0.0 0.0 0.00 0.00 0.00 50 1018.3
20260506212457 23 275 0.0 0.0 0.00 0.00 0.00 50 1018.4
20260506211958 23 275 0.0 0.0 0.00 0.00 0.00 49 1018.4
20260506211458 23 324 0.0 1.6 0.00 0.00 0.00 50 1018.5
20260506210957 23 271 0.0 6.4 0.00 0.00 0.00 50 1018.6
20260506210457 23 200 1.6 6.4 0.00 0.00 0.00 48 1018.5
20260506205957 23 320 0.0 0.0 0.00 0.00 0.00 51 1018.6
20260506205800 23 71 0.0 0.0 0.00 0.00 0.00 51 1018.7
20260506204958 22 337 0.0 3.2 0.00 0.00 0.00 52 1018.7
20260506204749 22 264 0.0 3.2 0.00 0.00 0.00 50 1018.7
20260506204259 23 300 0.0 1.6 0.00 0.00 0.00 52 1018.7
20260506203457 23 353 0.0 0.0 0.00 0.00 0.00 51 1018.8
20260506202957 22 1 0.0 0.0 0.00 0.00 0.00 53 1018.8
20260506202456 22 353 0.0 0.0 0.00 0.00 0.00 50 1018.9
20260506201957 23 286 0.0 0.0 0.00 0.00 0.00 52 1019.0
20260506201457 22 313 0.0 0.0 0.00 0.00 0.00 52 1019.0
20260506200958 22 0.0 0.0 0.00 0.00 0.00 53 1019.1
20260506200458 22 30 0.0 0.0 0.00 0.00 0.00 52 1019.1
20260506195958 22 30 0.0 0.0 0.00 0.00 0.00 54 1019.1
20260506195458 21 288 0.0 0.0 0.00 0.00 0.00 55 1019.1
20260506194957 21 345 0.0 0.0 0.00 0.00 0.00 54 1019.2
20260506194458 21 345 0.0 0.0 0.00 0.00 0.00 55 1019.2
20260506193956 21 354 0.0 0.0 0.00 0.00 0.00 54 1019.3
20260506193457 21 347 0.0 0.0 0.00 0.00 0.00 57 1019.3
20260506192958 21 324 0.0 0.0 0.00 0.00 0.00 55 1019.3
20260506192757 -17 323 0.0 0.0 0.00 0.00 0.00 1019.4
20260506191958 -17 0 0.0 0.0 0.00 0.00 0.00 1019.5
20260506191457 -17 0 0.0 0.0 0.00 0.00 0.00 1019.6
20260506190958 -17 354 0.0 0.0 0.00 0.00 0.00 1019.5
20260506190457 -17 330 0.0 0.0 0.00 0.00 0.00 1019.7
20260506185957 20 320 0.0 0.0 0.00 0.00 0.00 61 1019.6
20260506185458 20 306 0.0 0.0 0.00 0.00 0.00 61 1019.7
20260506184956 18 319 0.0 0.0 0.00 0.00 0.00 61 1019.6
20260506184458 18 299 0.0 0.0 0.00 0.00 0.00 61 1019.7
20260506183956 18 299 0.0 0.0 0.00 0.00 0.00 60 1019.8
20260506183457 18 295 0.0 0.0 0.00 0.00 0.00 60 1019.8
20260506182957 18 279 0.0 0.0 0.00 0.00 0.00 62 1019.8
20260506182458 18 0 0.0 0.0 0.00 0.00 0.00 60 1019.8
20260506182237 19 327 0.0 0.0 0.00 0.00 0.00 61 1019.9
20260506181457 19 316 0.0 0.0 0.00 0.00 0.00 63 1019.9
20260506180957 18 166 0.0 0.0 0.00 0.00 0.00 63 1019.9
20260506180456 18 166 0.0 0.0 0.00 0.00 0.00 63 1020.0
20260506175958 18 94 0.0 0.0 0.00 0.00 0.00 62 1020.1
20260506175456 -17 289 0.0 0.0 0.00 0.00 0.00 1020.0
20260506174958 -17 276 0.0 0.0 0.00 0.00 0.00 1019.9
20260506174456 -17 317 0.0 0.0 0.00 0.00 0.00 1020.1
20260506173958 -17 317 0.0 0.0 0.00 0.00 0.00 1020.0
20260506173456 16 45 0.0 0.0 0.00 0.00 0.00 67 1020.0
20260506172957 16 0.0 0.0 0.00 0.00 0.00 67 1020.0
20260506172443 16 323 0.0 0.0 0.00 0.00 0.00 71 1020.1
20260506171944 16 323 0.0 0.0 0.00 0.00 0.00 71 1020.1
20260506171433 16 331 0.0 0.0 0.00 0.00 0.00 71 1020.1
20260506170931 15 347 0.0 0.0 0.00 0.00 0.00 72 1020.2
20260506170433 15 292 0.0 0.0 0.00 0.00 0.00 73 1020.2
20260506165929 15 326 0.0 0.0 0.00 0.00 0.00 73 1020.1
20260506165429 15 314 0.0 0.0 0.00 0.00 0.00 73 1020.2
20260506164928 15 338 0.0 0.0 0.00 0.00 0.00 73 1020.2
20260506164705 15 285 0.0 0.0 0.00 0.00 0.00 74 1020.1
20260506163929 15 285 0.0 0.0 0.00 0.00 0.00 74 1020.1
20260506163815 15 37 0.0 0.0 0.00 0.00 0.00 76 1020.3
20260506163811 15 344 0.0 0.0 0.00 0.00 0.00 75 1020.2
20260506162429 15 37 0.0 0.0 0.00 0.00 0.00 75 1020.2
20260506161927 15 327 0.0 0.0 0.00 0.00 0.00 75 1020.2
20260506161425 15 0 0.0 0.0 0.00 0.00 0.00 75 1020.3
20260506160925 15 307 0.0 0.0 0.00 0.00 0.00 75 1020.2
20260506160715 15 274 0.0 0.0 0.00 0.00 0.00 75 1020.2
20260506160245 15 321 0.0 0.0 0.00 0.00 0.00 75 1020.2
20260506155426 15 313 0.0 0.0 0.00 0.00 0.00 76 1020.2
20260506154925 15 254 0.0 0.0 0.00 0.00 0.00 76 1020.2
20260506154426 14 302 0.0 0.0 0.00 0.00 0.00 76 1020.2
20260506153927 14 338 0.0 0.0 0.00 0.00 0.00 76 1020.2
20260506153426 15 319 0.0 0.0 0.00 0.00 0.00 77 1020.1
20260506153223 14 319 0.0 0.0 0.00 0.00 0.00 77 1020.1
20260506152429 14 345 0.0 0.0 0.00 0.00 0.00 77 1020.2
20260506151928 14 289 0.0 0.0 0.00 0.00 0.00 77 1020.1
20260506151426 14 309 0.0 0.0 0.00 0.00 0.00 77 1020.2
20260506150927 14 323 0.0 0.0 0.00 0.00 0.00 78 1020.1
20260506150426 13 345 0.0 0.0 0.00 0.00 0.00 79 1020.1
20260506145929 -17 310 0.0 0.0 0.00 0.00 0.00 1020.1
20260506145515 13 303 0.0 0.0 0.00 0.00 0.00 79 1020.2
20260506145457 13 341 0.0 0.0 0.00 0.00 0.00 79 1020.2
20260506144425 13 303 0.0 0.0 0.00 0.00 0.00 79 1020.2
20260506143927 13 306 0.0 0.0 0.00 0.00 0.00 79 1020.2
20260506143429 13 306 0.0 0.0 0.00 0.00 0.00 79 1020.1
20260506142930 13 300 0.0 0.0 0.00 0.00 0.00 79 1020.1
20260506142430 -17 300 0.0 0.0 0.00 0.00 0.00 1020.0
20260506141928 13 331 0.0 0.0 0.00 0.00 0.00 79 1020.1
20260506141428 13 331 0.0 0.0 0.00 0.00 0.00 79 1020.0
20260506140925 13 334 0.0 0.0 0.00 0.00 0.00 79 1020.1
20260506140427 13 334 0.0 0.0 0.00 0.00 0.00 79 1019.9
20260506135929 13 336 0.0 0.0 0.00 0.00 0.00 79 1019.9
20260506135428 13 312 0.0 0.0 0.00 0.00 0.00 79 1019.8
20260506135210 13 312 0.0 0.0 0.00 0.00 0.00 79 1019.7
20260506134429 13 312 0.0 0.0 0.00 0.00 0.00 79 1019.5
20260506133928 13 312 0.0 0.0 0.00 0.00 0.00 79 1019.5
20260506133429 13 312 0.0 0.0 0.00 0.00 0.00 78 1019.4
20260506132903 13 307 0.0 0.0 0.00 0.00 0.00 78 1019.5
20260506132405 13 307 0.0 0.0 0.00 0.00 0.00 78 1019.3
20260506131904 13 307 0.0 0.0 0.00 0.00 0.00 78 1019.3
20260506131403 13 307 0.0 0.0 0.00 0.00 0.00 78 1019.3
20260506130904 13 309 0.0 0.0 0.00 0.00 0.00 78 1019.3
20260506130404 13 309 0.0 0.0 0.00 0.00 0.00 78 1019.2
20260506125904 13 309 0.0 0.0 0.00 0.00 0.00 77 1019.2
20260506125405 13 309 0.0 0.0 0.00 0.00 0.00 77 1019.1
20260506124905 13 309 0.0 0.0 0.00 0.00 0.00 77 1019.1
20260506124406 13 309 0.0 0.0 0.00 0.00 0.00 77 1019.0
20260506123907 -17 0.0 0.0 0.00 0.00 0.00 1019.1
20260506123406 13 309 0.0 0.0 0.00 0.00 0.00 77 1019.1
20260506122901 13 309 0.0 0.0 0.00 0.00 0.00 77 1019.1
20260506122359 13 309 0.0 0.0 0.00 0.00 0.00 77 1019.1
20260506121901 13 309 0.0 0.0 0.00 0.00 0.00 77 1019.1
20260506121400 13 309 0.0 0.0 0.00 0.00 0.00 77 1019.1
20260506120900 13 309 0.0 0.0 0.00 0.00 0.00 76 1019.0
20260506120401 13 309 0.0 0.0 0.00 0.00 0.00 76 1019.0
20260506115900 13 309 0.0 0.0 0.00 0.00 0.00 76 1018.9
20260506115359 13 309 0.0 0.0 0.00 0.00 0.00 76 1018.8
20260506114859 13 309 0.0 0.0 0.00 0.00 0.00 76 1018.8
20260506114359 13 309 0.0 0.0 0.00 0.00 0.00 76 1018.8
20260506113900 14 309 0.0 0.0 0.00 0.00 0.00 76 1018.8
20260506113401 14 309 0.0 0.0 0.00 0.00 0.00 76 1018.6
20260506113148 14 309 0.0 0.0 0.00 0.00 0.00 76 1018.7
20260506112400 14 309 0.0 0.0 0.00 0.00 0.00 76 1018.6
20260506112148 14 309 0.0 0.0 0.00 0.00 0.00 76 1018.6
20260506111401 14 309 0.0 0.0 0.00 0.00 0.00 76 1018.7
20260506110901 14 309 0.0 0.0 0.00 0.00 0.00 76 1018.6
20260506110400 14 309 0.0 0.0 0.00 0.00 0.00 76 1018.5
20260506105900 14 309 0.0 0.0 0.00 0.00 0.00 76 1018.6
20260506105400 14 309 0.0 0.0 0.00 0.00 0.00 75 1018.5
20260506104900 14 309 0.0 0.0 0.00 0.00 0.00 76 1018.5
20260506104359 14 309 0.0 0.0 0.00 0.00 0.00 76 1018.4
20260506103900 14 309 0.0 0.0 0.00 0.00 0.00 76 1018.4
20260506103401 14 309 0.0 0.0 0.00 0.00 0.00 76 1018.5
20260506102901 14 309 0.0 0.0 0.00 0.00 0.00 76 1018.5
20260506102401 14 309 0.0 0.0 0.00 0.00 0.00 76 1018.4
20260506101901 14 309 0.0 0.0 0.00 0.00 0.00 76 1018.6
20260506101400 14 309 0.0 0.0 0.00 0.00 0.00 76 1018.5
20260506100900 14 309 0.0 0.0 0.00 0.00 0.00 76 1018.6
20260506100702 14 309 0.0 0.0 0.00 0.00 0.00 76 1018.5
20260506095901 14 309 0.0 0.0 0.00 0.00 0.00 76 1018.5
20260506095401 14 309 0.0 0.0 0.00 0.00 0.00 76 1018.5
20260506094901 14 309 0.0 0.0 0.00 0.00 0.00 76 1018.4
20260506094400 14 309 0.0 0.0 0.00 0.00 0.00 76 1018.5
20260506093900 14 309 0.0 0.0 0.00 0.00 0.00 76 1018.5
20260506093401 14 0.0 0.0 0.00 0.00 0.00 76 1018.6
20260506092857 14 309 0.0 0.0 0.00 0.00 0.00 76 1018.6
20260506092346 14 309 0.0 0.0 0.00 0.00 0.00 76 1018.7
20260506091846 14 309 0.0 0.0 0.00 0.00 0.00 76 1018.7
20260506091345 14 309 0.0 0.0 0.00 0.00 0.00 76 1018.6
20260506090845 14 309 0.0 0.0 0.00 0.00 0.00 76 1018.6
20260506090346 14 309 0.0 0.0 0.00 0.00 0.00 76 1018.5
20260506085846 14 309 0.0 0.0 0.00 0.00 0.00 75 1018.5
20260506085344 14 309 0.0 0.0 0.00 0.00 0.00 75 1018.5
20260506084845 14 309 0.0 0.0 0.00 0.00 0.00 75 1018.5
20260506084346 14 309 0.0 0.0 0.00 0.00 0.00 75 1018.5
20260506084148 14 309 0.0 0.0 0.00 0.00 0.00 75 1018.5
20260506083345 14 309 0.0 0.0 0.00 0.00 0.00 75 1018.5
20260506082844 14 309 0.0 0.0 0.00 0.00 0.00 75 1018.5
20260506082345 14 309 0.0 0.0 0.00 0.00 0.00 75 1018.6
20260506081846 14 309 0.0 0.0 0.00 0.00 0.00 75 1018.6
20260506081346 14 309 0.0 0.0 0.00 0.00 0.00 75 1018.5
20260506080845 14 309 0.0 0.0 0.00 0.00 0.00 75 1018.5
20260506080644 14 309 0.0 0.0 0.00 0.00 0.00 75 1018.5
20260506072846 14 309 0.0 0.0 0.00 0.00 0.00 73 1018.2
20260506072652 14 7 0.0 0.0 0.00 0.00 0.00 73 1018.3
20260506071845 14 7 0.0 0.0 0.00 0.00 0.00 73 1018.2
20260506071638 14 7 0.0 0.0 0.00 0.00 0.00 73 1018.2
20260506070844 14 7 0.0 0.0 0.00 0.00 0.00 73 1018.1
20260506070345 14 7 0.0 0.0 0.00 0.00 0.00 72 1018.0
20260506062134 15 327 0.0 0.0 0.00 0.00 0.00 71 1017.7
20260506061625 15 327 0.0 0.0 0.00 0.00 0.00 71 1017.7
20260506061139 15 327 0.0 0.0 0.00 0.00 0.00 70 1017.6
20260506060345 15 327 0.0 0.0 0.00 0.00 0.00 70 1017.5